Regional Weather Roundup
Issued by NWS Kansas City/Pleasant Hill, MO

Home | Current Version | Previous Version | Text Only | Print | Product List | Glossary On
Versions: 1 2 3 4 5 6 7 8 9 10 11 12 13 14 15 16 17 18 19 20 21 22 23 24 25 26 27 28 29 30 31 32 33 34 35 36 37 38 39 40 41 42 43 44 45 46 47 48 49 50
000
ASUS43 KEAX 240010
RWREAX

WEATHER ROUNDUP FOR EASTERN KANSAS AND NORTHWEST MISSOURI
NATIONAL WEATHER SERVICE KANSAS CITY/PLEASANT HILL MO
700 PM CDT TUE JUL 23 2019

KSZ040-057-103>105-MOZ028-029-037-043-240100-
...KANSAS CITY METROPOLITAN AREA...

CITY           SKY/WX    TMP DP  RH WIND       PRES   REMARKS
K.C. INTL      MOSUNNY   76  57  51 NE6       30.19S
6HR MIN TEMP:  76; 6HR MAX TEMP:  81;

K.C. DOWNTOWN  PTSUNNY   80  55  42 NE8       30.16F
6HR MIN TEMP:  79; 6HR MAX TEMP:  82;

LEES SUMMIT    PTSUNNY   78  56  46 NE8       30.18F
6HR MIN TEMP:  77; 6HR MAX TEMP:  80;

OLATHE - IXD   SUNNY     78  57  48 N6        30.18F
6HR MIN TEMP:  76; 6HR MAX TEMP:  79;

OLATHE - OJC   SUNNY     77  56  48 E8        30.18F
6HR MIN TEMP:  76; 6HR MAX TEMP:  80;

LAWRENCE       SUNNY     79  56  45 CALM      30.18S

$$

MOZ001>008-011>017-020>025-030>033-038>040-044>046-053-054-240100-
...NORTHERN AND CENTRAL MISSOURI...

CITY           SKY/WX    TMP DP  RH WIND       PRES   REMARKS
ST. JOSEPH     SUNNY     77  57  50 N6        30.18F
6HR MIN TEMP:  76; 6HR MAX TEMP:  82;

MOSBY          PTCLDY    77  52  41 N5        30.18F
WARRENSBURG    SUNNY     75  55  50 N5        30.17S
WHITEMAN AFB   MOSUNNY   77  57  49 NE8       30.13F
6HR MIN TEMP:  76; 6HR MAX TEMP:  79;

CLINTON        SUNNY     77  59  53 N7        30.17F
SEDALIA        SUNNY     74  56  53 NE8       30.18F
6HR MIN TEMP:  74; 6HR MAX TEMP:  77;

WARSAW         NOT AVBL
CHILLICOTHE      N/A     81  57  43 NE5       30.18F
6HR MIN TEMP:  78; 6HR MAX TEMP:  83;

KIRKSVILLE     SUNNY     78  58  49 N7        30.17F
6HR MIN TEMP:  76; 6HR MAX TEMP:  83;


$$

MOZ041-047>049-056>058-063>065-088>090-097-240100-
...EASTERN AND SOUTHERN MISSOURI...

CITY           SKY/WX    TMP DP  RH WIND       PRES   REMARKS
ST. LOUIS INTL MOSUNNY   79  56  45 N9        30.11F
6HR MIN TEMP:  79; 6HR MAX TEMP:  82;

SPIRIT OF STL  SUNNY     80  58  46 NW7       30.11F
COLUMBIA       SUNNY     79  55  43 N7        30.15F
ROLLA          PTSUNNY   77  56  48 N7        30.16F
OSAGE BEACH    SUNNY     77  58  51 VRB5      30.16F
SPRINGFIELD    SUNNY     78  57  48 N12       30.15F
BRANSON        MOSUNNY   77  55  47 N9        30.15F
JOPLIN         SUNNY     78  60  53 NE9       30.16F
WEST PLAINS    SUNNY     77  56  48 NE7       30.14F

$$

IAZ060-094-KSZ022-034>040-054-083-096-NEZ052-066-093-240100-
...KANSAS...SOUTHEAST NEBRASKA AND IOWA...

CITY           SKY/WX    TMP DP  RH WIND       PRES   REMARKS
TOPEKA         SUNNY     78  56  46 NE6       30.18F
6HR MIN TEMP:  77; 6HR MAX TEMP:  81;

MANHATTAN      SUNNY     79  56  45 NE7       30.19F
EMPORIA        SUNNY     78  55  44 E5        30.18F
CHANUTE        MOSUNNY   82  58  43 E6        30.17S
WICHITA        MOSUNNY   83  50  31 E8        30.16F
OMAHA          MOSUNNY   79  54  41 N3        30.20F
LINCOLN        SUNNY     79  53  40 NE7       30.22F
FALLS CITY     MOSUNNY   77  58  51 N3        30.20F
LAMONI         PTSUNNY   78  56  46 N8        30.19F
DES MOINES     MOSUNNY   79  54  41 N8        30.17F

$$




USA.gov is the U.S. government's official web portal to all federal, state and local government web resources and services.